TimeEDT,TemperatureF,Dew PointF,Humidity,Sea Level PressureIn,VisibilityMPH,Wind Direction,Wind SpeedMPH,Gust SpeedMPH,PrecipitationIn,Events,Conditions,WindDirDegrees,DateUTC
12:15 AM,55.4,48.2,77,29.75,10.0,WSW,12.7,18.4,N/A,,Overcast,240,2011-10-02 04:15:00
12:35 AM,55.4,48.2,77,29.75,10.0,SW,6.9,-,N/A,,Overcast,230,2011-10-02 04:35:00
12:55 AM,55.4,48.2,77,29.75,10.0,SW,8.1,-,N/A,,Overcast,230,2011-10-02 04:55:00
1:15 AM,55.4,48.2,77,29.75,10.0,SSW,9.2,-,N/A,,Overcast,210,2011-10-02 05:15:00
1:55 AM,53.6,46.4,77,29.75,10.0,SSW,10.4,-,N/A,,Overcast,210,2011-10-02 05:55:00
2:15 AM,53.6,46.4,77,29.74,10.0,South,11.5,-,N/A,,Overcast,190,2011-10-02 06:15:00
2:35 AM,53.6,46.4,77,29.74,10.0,SSW,8.1,-,N/A,,Overcast,200,2011-10-02 06:35:00
2:55 AM,53.6,46.4,77,29.74,10.0,SSW,10.4,-,N/A,,Mostly Cloudy,200,2011-10-02 06:55:00
3:15 AM,53.6,46.4,77,29.74,10.0,SSW,13.8,18.4,N/A,,Mostly Cloudy,210,2011-10-02 07:15:00
3:35 AM,53.6,44.6,72,29.74,10.0,SW,15.0,18.4,N/A,,Mostly Cloudy,220,2011-10-02 07:35:00
3:55 AM,53.6,46.4,77,29.74,10.0,SW,9.2,-,N/A,,Mostly Cloudy,220,2011-10-02 07:55:00
4:15 AM,53.6,44.6,72,29.74,10.0,SW,9.2,-,N/A,,Overcast,220,2011-10-02 08:15:00
4:35 AM,51.8,44.6,76,29.74,10.0,SSW,10.4,-,N/A,,Mostly Cloudy,200,2011-10-02 08:35:00
4:55 AM,51.8,44.6,76,29.74,10.0,SSW,11.5,-,N/A,,Mostly Cloudy,200,2011-10-02 08:55:00
5:35 AM,51.8,46.4,82,29.76,10.0,SSW,12.7,-,N/A,,Mostly Cloudy,210,2011-10-02 09:35:00
5:55 AM,51.8,46.4,82,29.77,10.0,SSW,11.5,-,N/A,,Overcast,210,2011-10-02 09:55:00
6:15 AM,51.8,46.4,82,29.77,10.0,SW,13.8,-,N/A,,Mostly Cloudy,220,2011-10-02 10:15:00
6:55 AM,51.8,46.4,82,29.77,10.0,WSW,13.8,-,N/A,,Mostly Cloudy,240,2011-10-02 10:55:00
7:15 AM,53.6,46.4,77,29.77,10.0,WSW,13.8,19.6,N/A,,Mostly Cloudy,250,2011-10-02 11:15:00
7:35 AM,53.6,46.4,77,29.77,10.0,West,13.8,20.7,N/A,,Mostly Cloudy,260,2011-10-02 11:35:00
7:55 AM,53.6,46.4,77,29.78,10.0,WSW,11.5,16.1,N/A,,Overcast,250,2011-10-02 11:55:00
8:15 AM,53.6,46.4,77,29.79,10.0,WSW,9.2,-,N/A,,Overcast,240,2011-10-02 12:15:00
8:35 AM,53.6,46.4,77,29.80,10.0,WSW,12.7,-,N/A,,Mostly Cloudy,240,2011-10-02 12:35:00
8:55 AM,53.6,46.4,77,29.80,10.0,WSW,11.5,-,N/A,,Mostly Cloudy,240,2011-10-02 12:55:00
9:15 AM,53.6,44.6,72,29.80,10.0,WSW,11.5,-,N/A,,Overcast,250,2011-10-02 13:15:00
9:35 AM,53.6,44.6,72,29.81,10.0,WSW,10.4,-,N/A,,Overcast,240,2011-10-02 13:35:00
9:55 AM,53.6,44.6,72,29.81,10.0,WSW,5.8,-,N/A,,Overcast,250,2011-10-02 13:55:00
10:15 AM,53.6,44.6,72,29.81,10.0,WSW,9.2,-,N/A,,Overcast,250,2011-10-02 14:15:00
10:35 AM,53.6,44.6,72,29.82,10.0,WSW,10.4,-,N/A,,Overcast,250,2011-10-02 14:35:00
10:55 AM,53.6,44.6,72,29.83,10.0,WSW,5.8,-,N/A,,Overcast,240,2011-10-02 14:55:00
11:15 AM,53.6,44.6,72,29.83,10.0,SSW,9.2,-,N/A,,Overcast,210,2011-10-02 15:15:00
11:35 AM,53.6,44.6,72,29.83,10.0,SSW,10.4,-,N/A,,Overcast,210,2011-10-02 15:35:00
11:55 AM,53.6,44.6,72,29.83,10.0,SW,9.2,-,N/A,,Overcast,220,2011-10-02 15:55:00
12:15 PM,51.8,44.6,76,29.84,6.0,SSW,3.5,-,0.01,,Overcast,200,2011-10-02 16:15:00
12:35 PM,51.8,46.4,82,29.83,10.0,WSW,6.9,-,0.01,,Overcast,240,2011-10-02 16:35:00
12:55 PM,51.8,46.4,82,29.83,10.0,WSW,8.1,-,0.01,,Overcast,250,2011-10-02 16:55:00
1:15 PM,51.8,44.6,76,29.83,10.0,WSW,5.8,-,N/A,,Overcast,250,2011-10-02 17:15:00
1:35 PM,51.8,44.6,76,29.84,10.0,SW,5.8,-,N/A,,Overcast,230,2011-10-02 17:35:00
2:15 PM,51.8,44.6,76,29.83,10.0,SW,8.1,-,N/A,,Overcast,230,2011-10-02 18:15:00
2:55 PM,51.8,44.6,76,29.85,9.0,WSW,8.1,-,N/A,,Overcast,250,2011-10-02 18:55:00
3:15 PM,50.0,44.6,82,29.85,10.0,West,6.9,-,N/A,,Overcast,260,2011-10-02 19:15:00
3:55 PM,51.8,44.6,76,29.85,10.0,WSW,9.2,-,N/A,,Overcast,240,2011-10-02 19:55:00
4:15 PM,51.8,42.8,71,29.86,10.0,WSW,10.4,-,N/A,,Mostly Cloudy,240,2011-10-02 20:15:00
4:35 PM,51.8,44.6,76,29.86,10.0,WSW,9.2,-,N/A,,Overcast,250,2011-10-02 20:35:00
4:55 PM,51.8,42.8,71,29.87,10.0,WSW,13.8,-,N/A,,Mostly Cloudy,240,2011-10-02 20:55:00
5:35 PM,51.8,42.8,71,29.88,10.0,WSW,8.1,-,N/A,,Overcast,250,2011-10-02 21:35:00
6:35 PM,51.8,41.0,67,29.89,10.0,WSW,8.1,-,N/A,,Mostly Cloudy,240,2011-10-02 22:35:00
6:55 PM,50.0,41.0,71,29.90,10.0,WSW,9.2,-,N/A,,Scattered Clouds,240,2011-10-02 22:55:00
7:15 PM,51.8,41.0,67,29.90,10.0,WSW,6.9,-,N/A,,Mostly Cloudy,250,2011-10-02 23:15:00
7:55 PM,51.8,41.0,67,29.91,10.0,WSW,8.1,-,N/A,,Mostly Cloudy,240,2011-10-02 23:55:00
8:15 PM,50.0,39.2,66,29.92,10.0,WSW,9.2,-,N/A,,Mostly Cloudy,240,2011-10-03 00:15:00
8:35 PM,50.0,41.0,71,29.93,10.0,WSW,9.2,-,N/A,,Mostly Cloudy,240,2011-10-03 00:35:00
8:55 PM,51.8,41.0,67,29.94,10.0,WSW,9.2,-,N/A,,Overcast,240,2011-10-03 00:55:00
9:15 PM,51.8,39.2,62,29.94,10.0,WSW,10.4,-,N/A,,Overcast,240,2011-10-03 01:15:00
9:35 PM,51.8,39.2,62,29.95,10.0,WSW,9.2,-,N/A,,Overcast,240,2011-10-03 01:35:00
9:55 PM,51.8,41.0,67,29.95,10.0,SW,11.5,-,N/A,,Mostly Cloudy,220,2011-10-03 01:55:00
10:15 PM,51.8,41.0,67,29.95,10.0,WSW,11.5,-,N/A,,Overcast,240,2011-10-03 02:15:00
10:35 PM,51.8,41.0,67,29.95,10.0,SW,8.1,-,N/A,,Overcast,230,2011-10-03 02:35:00
10:55 PM,50.0,41.0,71,29.96,10.0,SW,9.2,-,N/A,,Mostly Cloudy,230,2011-10-03 02:55:00
11:15 PM,50.0,39.2,66,29.96,10.0,SW,11.5,-,N/A,,Mostly Cloudy,230,2011-10-03 03:15:00
11:35 PM,50.0,41.0,71,29.96,10.0,SW,9.2,-,N/A,,Mostly Cloudy,230,2011-10-03 03:35:00
11:55 PM,50.0,41.0,71,29.96,10.0,West,8.1,-,N/A,,Overcast,260,2011-10-03 03:55:00